Stations météo

Publicité
Kleine Brogel, Belgique (6479): Température de l'air & dewpoint: 22.03.2020 21:00:00 - 28.03.2020 21:00:00 (CET)Kleine Brogel, Belgique (6479): Vitesse du vent & gusts: 22.03.2020 21:00:00 - 28.03.2020 21:00:00 (CET)Kleine Brogel, Belgique (6479): Direction du vent: 22.03.2020 21:00:00 - 28.03.2020 21:00:00 (CET)Kleine Brogel, Belgique (6479): reduced air pressure: 22.03.2020 21:00:00 - 28.03.2020 21:00:00 (CET)Kleine Brogel, Belgique (6479): visibility: 22.03.2020 21:00:00 - 28.03.2020 21:00:00 (CET)
Date & Time tt [°C] td [°C] ff [km/h] ff [knt] fx [km/h] fx [knt] dd ppp [hPa] vv [km]
28.03.2020 21:00:00 7,5 0,7 18 10 36 19 N 1026,0 20
28.03.2020 20:00:00 8,5 1,1 18 10 36 19 N 1025,5 20
28.03.2020 19:00:00 9,8 1,1 18 10 - - N 1024,2 20
28.03.2020 18:00:00 12,0 -1,8 22 12 36 19 NNE 1023,2 20
28.03.2020 17:00:00 13,3 -1,8 22 12 36 19 NNE 1022,8 19
28.03.2020 16:00:00 14,0 0,0 22 12 - - NNE 1022,7 20
28.03.2020 15:00:00 14,0 0,0 22 12 36 19 N 1023,1 18
28.03.2020 14:00:00 14,1 -0,9 25 14 43 23 NNE 1023,2 16
28.03.2020 13:00:00 14,4 -1,3 25 14 - - NE 1023,2 17
28.03.2020 12:00:00 13,3 0,0 25 14 36 19 NE 1023,2 14
28.03.2020 11:00:00 11,7 0,4 25 14 32 18 NE 1023,1 13
28.03.2020 10:00:00 9,6 1,1 14 8 - - NNE 1023,0 12
28.03.2020 09:00:00 7,9 1,0 18 10 25 14 NNE 1022,7 7
28.03.2020 08:00:00 6,0 1,1 11 6 18 10 NNE 1022,1 12
28.03.2020 07:00:00 4,0 0,7 11 6 - - NNE 1021,7 9
28.03.2020 06:00:00 4,1 0,4 7 4 14 8 NNE 1021,1 11
28.03.2020 05:00:00 4,7 0,4 7 4 14 8 NNE 1020,7 12
28.03.2020 04:00:00 5,0 0,5 8 4 - - N 1020,6 10
28.03.2020 03:00:00 5,3 0,6 5 3 11 6 N 1020,5 7
28.03.2020 02:00:00 6,4 0,7 7 4 11 6 NNE 1020,3 14
28.03.2020 01:00:00 7,4 0,7 7 4 - - NNE 1020,3 15
28.03.2020 00:00:00 8,5 0,7 11 6 11 6 NNE 1020,2 15
27.03.2020 23:00:00 8,7 0,8 7 4 14 8 NNE 1020,2 15
27.03.2020 22:00:00 10,1 0,7 7 4 - - NNE 1019,8 15
27.03.2020 21:00:00 10,0 0,6 7 4 11 6 N 1019,5 17
27.03.2020 20:00:00 10,9 0,7 7 4 14 8 N 1019,2 18
27.03.2020 19:00:00 12,9 0,2 7 4 - - NNE 1018,6 17
27.03.2020 18:00:00 14,5 0,2 11 6 29 16 ENE 1018,1 18
27.03.2020 17:00:00 15,0 -0,2 22 12 32 18 NE 1018,1 20
27.03.2020 16:00:00 15,2 -0,2 18 10 - - NE 1018,2 20
27.03.2020 15:00:00 15,0 -0,4 18 10 36 19 NE 1018,6 20
27.03.2020 14:00:00 13,6 -1,0 22 12 32 18 NE 1018,8 19
27.03.2020 13:00:00 13,1 -0,5 14 8 - - NE 1019,2 18
27.03.2020 12:00:00 11,1 -1,6 14 8 25 14 ENE 1019,7 17
27.03.2020 11:00:00 9,2 -1,7 14 8 22 12 NE 1020,6 16
27.03.2020 10:00:00 7,8 -1,6 14 8 - - NE 1020,7 20
27.03.2020 09:00:00 5,8 -2,6 22 12 32 18 NE 1020,6 15
27.03.2020 08:00:00 3,3 -3,1 14 8 25 14 NNE 1020,7 17
27.03.2020 07:00:00 1,1 -3,3 7 4 - - NNE 1021,1 15
27.03.2020 06:00:00 0,2 -3,4 4 2 11 6 N 1020,7 15
27.03.2020 05:00:00 1,7 -3,2 7 4 11 6 NNE 1020,7 18
27.03.2020 04:00:00 1,7 -3,0 4 2 - - N 1021,0 16
27.03.2020 03:00:00 2,7 -3,0 7 4 14 8 NNE 1021,1 19
27.03.2020 02:00:00 3,6 -3,0 11 6 14 8 NNE 1021,2 20
27.03.2020 01:00:00 3,9 -3,0 11 6 - - NNE 1021,6 19
27.03.2020 00:00:00 4,9 -3,0 7 4 18 10 NNE 1021,7 19
26.03.2020 23:00:00 5,3 -3,3 11 6 22 12 NE 1021,7 20
26.03.2020 22:00:00 6,3 -3,5 14 8 - - NE 1021,7 20
26.03.2020 21:00:00 6,8 -3,8 11 6 22 12 NE 1021,7 20
26.03.2020 20:00:00 7,7 -3,8 11 6 14 8 NE 1021,6 20
26.03.2020 19:00:00 9,0 -4,6 11 6 - - NE 1021,1 20
26.03.2020 18:00:00 10,3 -5,4 18 10 32 18 ENE 1020,8 20
26.03.2020 17:00:00 11,4 -5,7 22 12 36 19 ENE 1020,7 20
26.03.2020 16:00:00 10,9 -7,5 18 10 - - ENE 1020,8 20
26.03.2020 15:00:00 10,3 -7,6 22 12 32 18 ENE 1021,2 20
26.03.2020 14:00:00 10,9 -6,8 18 10 32 18 ENE 1021,6 20
26.03.2020 13:00:00 9,9 -6,6 22 12 - - ENE 1022,0 19
26.03.2020 12:00:00 9,0 -7,0 18 10 32 18 ENE 1022,2 19
26.03.2020 11:00:00 7,8 -7,5 22 12 32 18 ENE 1022,7 20
26.03.2020 10:00:00 6,6 -7,6 18 10 - - E 1023,1 19
26.03.2020 09:00:00 5,2 -7,2 18 10 29 16 ENE 1023,0 19
26.03.2020 08:00:00 2,8 -7,6 14 8 22 12 NE 1023,1 19
26.03.2020 07:00:00 0,7 -7,6 14 8 - - NE 1023,1 20
26.03.2020 06:00:00 0,9 -7,8 14 8 22 12 NE 1022,8 20
26.03.2020 05:00:00 1,2 -7,8 11 6 18 10 NE 1022,7 20
26.03.2020 04:00:00 1,2 -7,5 11 6 - - NE 1023,2 20
26.03.2020 03:00:00 2,0 -7,4 11 6 14 8 NE 1023,2 20
26.03.2020 02:00:00 2,4 -8,0 11 6 14 8 NE 1023,7 20
26.03.2020 01:00:00 2,6 -6,6 7 4 - - ENE 1024,0 20
26.03.2020 00:00:00 4,1 -5,5 11 6 14 8 ENE 1023,7 20
25.03.2020 23:00:00 5,4 -6,0 7 4 18 10 ENE 1023,8 20
25.03.2020 22:00:00 6,5 -7,1 14 8 - - ENE 1023,7 20
25.03.2020 21:00:00 7,4 -9,1 14 8 22 12 NE 1023,3 11
25.03.2020 20:00:00 7,5 -9,2 14 8 22 12 NE 1023,1 20
25.03.2020 19:00:00 8,8 -9,1 11 6 - - NE 1022,8 20
25.03.2020 18:00:00 10,2 -8,9 18 10 29 16 NE 1023,2 20
25.03.2020 17:00:00 11,2 -9,2 18 10 32 18 NE 1023,8 19
25.03.2020 16:00:00 11,5 -9,2 18 10 - - NE 1024,2 20
25.03.2020 15:00:00 11,3 -10,5 14 8 29 16 E 1024,9 20
25.03.2020 14:00:00 9,9 -10,9 14 8 29 16 ENE 1025,5 20
25.03.2020 13:00:00 9,0 -9,0 14 8 - - E 1026,5 20
25.03.2020 12:00:00 8,3 -8,8 14 8 29 16 E 1027,4 20
25.03.2020 11:00:00 6,6 -9,8 14 8 25 14 E 1028,0 19
25.03.2020 10:00:00 5,1 -8,7 11 6 - - E 1028,5 20
25.03.2020 09:00:00 2,9 -8,4 11 6 22 12 E 1028,7 20
25.03.2020 08:00:00 1,0 -8,0 7 4 11 6 NE 1028,7 20
25.03.2020 07:00:00 -1,5 -8,5 7 4 - - ENE 1028,5 20
25.03.2020 06:00:00 -2,2 -8,7 4 2 7 4 N 1028,2 20
25.03.2020 05:00:00 -0,3 -9,2 7 4 11 6 ENE 1028,2 20
25.03.2020 04:00:00 -0,5 -9,2 7 4 - - ENE 1028,4 20
25.03.2020 03:00:00 0,8 -9,3 7 4 11 6 E 1028,4 20
25.03.2020 02:00:00 -1,9 -8,1 4 2 7 4 N 1028,7 20
25.03.2020 01:00:00 2,0 -9,8 4 2 - - N 1028,7 20
25.03.2020 00:00:00 3,4 -10,4 4 2 7 4 N 1028,9 20
24.03.2020 23:00:00 3,7 -9,7 4 2 11 6 N 1029,0 20
24.03.2020 22:00:00 4,8 -9,4 4 2 - - N 1029,2 20
24.03.2020 21:00:00 5,2 -8,5 4 2 14 8 N 1029,2 20
24.03.2020 20:00:00 6,7 -8,3 7 4 18 10 E 1029,2 20
24.03.2020 19:00:00 7,9 -9,3 7 4 - - E 1028,7 20
24.03.2020 18:00:00 9,4 -10,1 14 8 29 16 E 1028,9 20
24.03.2020 17:00:00 10,3 -9,6 14 8 29 16 E 1028,5 20
24.03.2020 16:00:00 10,8 -8,6 14 8 - - E 1028,7 20
24.03.2020 15:00:00 10,1 -8,3 11 6 25 14 ESE 1029,4 20
24.03.2020 14:00:00 9,4 -8,4 14 8 29 16 E 1030,2 20
24.03.2020 13:00:00 8,7 -8,1 14 8 - - E 1031,0 20
24.03.2020 12:00:00 7,5 -8,2 14 8 25 14 ESE 1031,4 20
24.03.2020 11:00:00 7,0 -7,8 25 14 25 14 ESE 1031,9 7
24.03.2020 10:00:00 5,3 -8,4 11 6 - - E 1032,0 20
24.03.2020 09:00:00 3,5 -8,0 7 4 18 10 E 1031,7 20
24.03.2020 08:00:00 1,2 -8,0 7 4 14 8 E 1032,0 20
24.03.2020 07:00:00 -1,9 -8,0 4 2 - - N 1031,7 20
24.03.2020 06:00:00 -0,5 -8,3 4 2 7 4 N 1031,0 20
24.03.2020 05:00:00 -0,1 -8,2 4 2 11 6 N 1031,2 20
24.03.2020 04:00:00 -0,1 -8,5 4 2 - - N 1031,7 20
24.03.2020 03:00:00 1,3 -9,0 4 2 11 6 N 1031,2 20
24.03.2020 02:00:00 1,4 -8,7 7 4 14 8 E 1031,4 20
24.03.2020 01:00:00 2,7 -9,7 7 4 - - ESE 1031,0 20
24.03.2020 00:00:00 3,6 -9,9 7 4 14 8 ESE 1031,2 20
23.03.2020 23:00:00 3,5 -9,4 7 4 14 8 E 1031,7 20
23.03.2020 22:00:00 4,5 -9,4 7 4 - - E 1031,7 20
23.03.2020 21:00:00 5,1 -8,9 7 4 18 10 E 1031,2 20
23.03.2020 20:00:00 5,7 -8,6 7 4 18 10 E 1031,2 20
23.03.2020 19:00:00 7,2 -10,0 11 6 - - E 1031,0 17
23.03.2020 18:00:00 8,8 -11,5 18 10 32 18 E 1030,7 20
23.03.2020 17:00:00 9,5 -11,0 18 10 40 21 E 1030,7 16
23.03.2020 16:00:00 9,9 -9,8 14 8 - - E 1030,9 20
23.03.2020 15:00:00 9,3 -9,4 18 10 36 19 E 1031,2 20
23.03.2020 14:00:00 8,5 -9,2 18 10 40 21 E 1031,7 20
23.03.2020 13:00:00 7,3 -10,0 18 10 - - E 1032,2 20
23.03.2020 12:00:00 5,7 -9,7 18 10 36 19 E 1032,5 6
23.03.2020 11:00:00 4,7 -9,2 18 10 43 23 E 1032,5 20
23.03.2020 10:00:00 3,1 -9,4 18 10 - - E 1032,9 20
23.03.2020 09:00:00 2,3 -8,7 14 8 36 19 E 1032,7 20
23.03.2020 08:00:00 1,2 -8,2 14 8 25 14 E 1032,7 20
23.03.2020 07:00:00 0,5 -8,5 14 8 - - E 1032,5 20
23.03.2020 06:00:00 0,5 -8,2 14 8 25 14 E 1032,2 20
23.03.2020 05:00:00 1,2 -7,8 11 6 29 16 E 1032,0 20
23.03.2020 04:00:00 1,6 -7,4 11 6 - - E 1031,7 20
23.03.2020 03:00:00 2,2 -7,4 14 8 29 16 E 1031,7 20
23.03.2020 02:00:00 2,5 -7,4 14 8 29 16 E 1031,7 20
23.03.2020 01:00:00 3,0 -7,3 14 8 - - E 1031,5 20
23.03.2020 00:00:00 3,4 -7,3 14 8 29 16 E 1031,7 20
22.03.2020 23:00:00 4,4 -7,5 14 8 29 16 E 1031,5 20
22.03.2020 22:00:00 5,4 -6,9 14 8 - - E 1031,4 20
22.03.2020 21:00:00 6,5 -6,6 14 8 25 14 E 1030,7 20

tt = Température de l'air
td = dewpoint
ff = Vitesse du vent
fx = gusts
dd = Direction du vent
ppp = reduced air pressure
vv = visibility

stations d'obs. à proximité